[[{"header":{"parameterUnit":"m.s-1","parameterCategory":1,"la1":30.2991,"la2":30.254,"lo1":-89.0895,"lo2":-89.0444,"dy":0.0017,"dx":0.0017,"nx":28,"ny":28,"refTime":"2025-08-20T09:00:00:Z","depth":0,"parameterNumber":2,"parameterNumberName":"U-component_of_WINDS"},"data":[0,0,0,0,0,0,0,0,0,0,0,0,0,0,0,0,0,0,0,0,0,0,0,0,0,0,0,0,0,0,0,0,0,0,0,0,0,0,0,0,0,0,0,0,0,0,0,0,0,0,0,0,0,0,0,0,0,0,1.7071,1.7071,0,1.7063,1.7063,1.7063,1.6993,1.6991,1.699,1.6988,1.6982,1.6983,1.6984,0,0,0,0,0,0,0,0,0,0,0,0,0,1.7027,1.7029,1.7071,1.7071,1.707,1.7063,1.7063,1.7063,1.6993,1.6991,1.6989,1.6987,1.6981,1.6983,1.6985,0,0,0,0,0,0,0,0,0,0,0,0,0,1.7036,1.7029,1.7071,1.7035,1.7032,1.7063,1.7063,1.7063,1.6994,1.6991,1.6989,1.6986,1.6981,1.6983,1.6985,1.705,0,0,1.6991,1.6992,0,0,0,0,0,0,0,0,1.7035,1.7037,1.704,1.7037,1.7034,1.7026,1.7045,1.7059,1.6994,1.7008,1.6988,1.6985,1.6999,1.6999,1.7003,1.705,1.705,1.6992,1.6993,1.6994,1.6994,0,0,0,0,0,0,0,1.7035,1.7037,1.7068,1.704,1.7037,1.702,1.7018,1.7047,1.7018,1.7007,1.7002,1.7002,1.6996,1.7002,1.7003,1.705,1.6992,1.6993,1.6995,1.6996,1.7151,1.7154,0,0,0,0,0,0,1.7039,1.7037,1.7068,1.7067,1.7028,1.7023,1.7021,1.7031,1.7018,1.7013,1.7004,1.6998,1.6999,1.7,1.7002,1.708,1.6994,1.6996,1.6997,1.7148,1.7151,1.7154,0,0,0,0,0,0,1.7038,1.7042,1.7068,1.7051,1.7053,1.7026,1.7039,1.7033,1.7038,1.7015,1.701,1.7014,1.6997,1.6999,1.7039,1.7078,1.6997,1.6999,1.7145,1.7149,1.7153,1.7234,0,0,0,0,0,0,1.7037,1.7043,1.7067,1.7052,1.7054,1.7105,1.7041,1.7034,1.7041,1.7034,1.7024,1.702,1.6995,1.7036,1.7041,1.708,1.7001,1.7141,1.7147,1.7152,1.7228,1.724,1.7251,0,0,0,0,0,1.7036,1.709,1.7068,1.7072,1.7084,1.7107,1.7108,1.7079,1.7045,1.7069,1.7055,1.702,1.7073,1.7041,1.7046,1.7086,1.7139,1.7145,1.7151,1.7222,1.7238,1.7251,0,0,0,0,0,0,1.711,1.7087,1.7063,1.7114,1.7113,1.7095,1.7125,1.7096,1.7105,1.7098,1.7061,1.7059,1.7105,1.7099,1.7064,1.7149,1.71,1.7107,1.7152,1.7166,1.7178,1.718,1.7002,0,0,0,0,0,1.7133,1.7153,1.7132,1.7178,1.7179,1.7153,1.7162,1.7139,1.7137,1.7136,1.7125,1.7125,1.7141,1.7153,1.7167,1.7225,1.7223,1.7255,1.7267,1.7277,1.7285,1.7317,1.7332,1.7175,1.7175,1.7175,0,0,1.7179,1.7169,1.7184,1.7193,1.719,1.7213,1.7153,1.7179,1.7196,1.714,1.7178,1.7169,1.7167,1.7217,1.7238,1.7213,1.7327,1.7285,1.7293,1.7296,1.7325,1.734,1.7353,1.718,1.7179,1.7178,0,0,1.7275,1.7269,1.7308,1.7306,1.7302,1.7283,1.7293,1.728,1.7272,1.7309,1.7268,1.7287,1.7316,1.7317,1.7321,1.7417,1.7386,1.7423,1.7485,1.7517,1.753,1.754,1.7577,1.759,1.743,1.743,1.743,0,1.7334,1.7366,1.7332,1.7362,1.7367,1.7317,1.7357,1.7356,1.7357,1.7363,1.7334,1.737,1.7365,1.7415,1.7439,1.7443,1.7454,1.7425,1.753,1.7541,1.7551,1.7585,1.7599,1.7435,1.7434,1.7434,1.7434,0,1.7439,1.7463,1.7494,1.7497,1.7506,1.754,1.7512,1.7525,1.7501,1.7487,1.7525,1.7517,1.7529,1.7539,1.7515,1.7586,1.7571,1.7537,1.7487,1.7571,1.7603,1.7615,1.7442,1.744,1.7439,1.7437,0,0,1.7584,1.7566,1.7579,1.758,1.7571,1.7589,1.7621,1.7633,1.7646,1.7648,1.7675,1.7701,1.767,1.7674,1.765,1.7678,1.7758,1.7641,1.764,1.7665,1.7837,1.7865,1.7881,1.7736,1.7738,1.774,1.7838,0,1.7679,1.7734,1.7704,1.7763,1.7785,1.7737,1.7765,1.7764,1.7751,1.7768,1.7753,1.7773,1.7729,1.7732,1.7757,1.7743,1.7793,1.7735,1.7763,1.7765,1.7768,1.7897,1.7926,1.8019,1.785,1.7852,1.7854,0,1.7797,1.7804,1.7866,1.7854,1.7862,1.7889,1.7897,1.7913,1.7911,1.7899,1.7905,1.7874,1.7906,1.7855,1.79,1.7861,1.7871,1.7866,1.7869,1.7872,1.7816,1.7906,1.8048,1.8063,1.7873,1.7871,1.787,0,1.79,1.7924,1.7965,1.7967,1.7953,1.7973,1.7969,1.7963,1.7972,1.798,1.7985,1.7996,1.8003,1.8013,1.7987,1.7951,1.8035,1.7982,1.8028,1.8029,1.805,1.805,1.8198,1.8052,1.8052,1.8052,1.8052,0,1.801,1.8051,1.8011,1.8036,1.808,1.8045,1.8089,1.808,1.8075,1.8098,1.8057,1.808,1.8042,1.8062,1.8041,1.8082,1.8085,1.8078,1.8073,1.8083,1.8085,1.8091,1.8085,1.8056,1.8055,1.8054,1.8054,0,1.8133,1.8108,1.815,1.8133,1.813,1.8164,1.815,1.8173,1.8156,1.8186,1.8191,1.8166,1.8187,1.8161,1.8179,1.8165,1.8222,1.8205,1.8223,1.8219,1.8269,1.8265,1.8428,1.8448,1.8288,1.8289,1.829,0,1.8207,1.8237,1.8224,1.8236,1.8234,1.8254,1.8263,1.823,1.8241,1.824,1.8264,1.8281,1.8293,1.8328,1.8311,1.8325,1.831,1.8366,1.8312,1.8323,1.8314,1.8314,1.8318,1.8378,1.838,1.8382,1.8383,0,1.8341,1.8327,1.8342,1.8352,1.8364,1.8371,1.8374,1.8387,1.8352,1.8366,1.8387,1.8396,1.8414,1.8432,1.8442,1.8437,1.8406,1.84,1.8412,1.8424,1.8435,1.8432,1.8256,1.8397,1.8395,1.8394,1.8394,1.8393,1.8443,1.8468,1.8463,1.8481,1.848,1.8484,1.8506,1.8492,1.8508,1.852,1.8499,1.8525,1.8522,1.8531,1.8531,1.8551,1.8528,1.8544,1.8549,1.8555,1.8563,1.8429,1.8553,1.8552,1.8552,1.8551,1.8551,0,1.8578,1.8572,1.8588,1.8595,1.8609,1.8576,1.8578,1.8593,1.8616,1.8615,1.8628,1.8652,1.8669,1.8654,1.8668,1.8688,1.8674,1.8693,1.8692,1.8693,1.8583,1.8572,1.8704,1.8704,1.8704,1.8704,1.8704,1.8704,1.8649,1.869,1.8676,1.8716,1.871,1.8735,1.874,1.8744,1.8743,1.8772,1.8786,1.8775,1.8769,1.8783,1.8798,1.8792,1.8801,1.8826,1.8817,1.8715,1.87,1.8686,1.8676,1.8828,1.8828,1.8925,1.8926,1.8927]},{"header":{"parameterUnit":"m.s-1","parameterCategory":1,"la1":30.2991,"la2":30.254,"lo1":-89.0895,"lo2":-89.0444,"dy":0.0017,"dx":0.0017,"nx":28,"ny":28,"refTime":"2025-08-20T09:00:00:Z","depth":0,"parameterNumber":3,"parameterNumberName":"V-component_of_WINDS"},"data":[0,0,0,0,0,0,0,0,0,0,0,0,0,0,0,0,0,0,0,0,0,0,0,0,0,0,0,0,0,0,0,0,0,0,0,0,0,0,0,0,0,0,0,0,0,0,0,0,0,0,0,0,0,0,0,0,0,0,0.7814,0.7817,0,0.8161,0.8165,0.8169,0.827,0.8268,0.8266,0.8264,0.8635,0.8647,0.8658,0,0,0,0,0,0,0,0,0,0,0,0,0,0.7255,0.7264,0.7813,0.7818,0.7822,0.816,0.8165,0.817,0.827,0.8268,0.8265,0.8263,0.8632,0.8645,0.8659,0,0,0,0,0,0,0,0,0,0,0,0,0,0.754,0.7268,0.7813,0.7912,0.7925,0.8159,0.8165,0.8171,0.827,0.8268,0.8265,0.8262,0.8627,0.8644,0.8661,0.8827,0,0,0.8715,0.8722,0,0,0,0,0,0,0,0,0.7523,0.756,0.7893,0.7906,0.792,0.8169,0.8105,0.8392,0.8271,0.814,0.8264,0.8261,0.8484,0.8513,0.8585,0.8844,0.886,0.8716,0.8727,0.8734,0.8739,0,0,0,0,0,0,0,0.7503,0.7546,0.7951,0.7898,0.7915,0.7946,0.7983,0.8159,0.8324,0.8151,0.8159,0.8198,0.849,0.8567,0.8594,0.8865,0.8716,0.8731,0.8742,0.8749,0.9286,0.929,0,0,0,0,0,0,0.7464,0.7529,0.794,0.7962,0.771,0.7958,0.8,0.8092,0.8322,0.8354,0.82,0.8201,0.8539,0.8574,0.8607,0.8821,0.8734,0.8751,0.8761,0.9282,0.9287,0.9291,0,0,0,0,0,0,0.7452,0.75,0.7926,0.7748,0.7804,0.7971,0.8074,0.81,0.8177,0.8359,0.8391,0.8247,0.8538,0.8583,0.8772,0.8835,0.8759,0.8774,0.9278,0.9284,0.9289,0.9245,0,0,0,0,0,0,0.7435,0.7495,0.7555,0.7748,0.7813,0.8079,0.8077,0.8109,0.8205,0.821,0.8412,0.8443,0.8539,0.8745,0.8789,0.8858,0.8788,0.9273,0.928,0.9287,0.9242,0.9249,0.9255,0,0,0,0,0,0.7415,0.7531,0.7557,0.7606,0.789,0.8082,0.812,0.8225,0.821,0.8275,0.8393,0.8436,0.882,0.8764,0.8814,0.8889,0.927,0.9278,0.9287,0.9239,0.9248,0.9255,0,0,0,0,0,0,0.7345,0.7557,0.7589,0.7769,0.7906,0.8098,0.8183,0.8229,0.8377,0.8376,0.8505,0.855,0.8731,0.8829,0.8762,0.9065,0.9047,0.9066,0.8994,0.9003,0.9009,0.8984,0.8803,0,0,0,0,0,0.7349,0.7481,0.7663,0.7805,0.7871,0.8015,0.8103,0.8171,0.8321,0.8381,0.8512,0.866,0.8815,0.8914,0.9066,0.9256,0.9306,0.9334,0.934,0.9344,0.936,0.9475,0.9491,0.9319,0.9319,0.9319,0,0,0.7362,0.7495,0.7571,0.7794,0.7908,0.8049,0.8064,0.821,0.8318,0.8405,0.8591,0.8693,0.8867,0.9059,0.915,0.9146,0.9418,0.9355,0.9357,0.9371,0.9485,0.9501,0.9516,0.9325,0.9323,0.9323,0,0,0.7457,0.7568,0.77,0.7815,0.7986,0.8082,0.8113,0.83,0.837,0.8557,0.8627,0.876,0.9022,0.9145,0.9242,0.9388,0.9437,0.9435,0.9469,0.9579,0.9593,0.9606,0.9663,0.9681,0.9449,0.9449,0.9449,0,0.7453,0.7661,0.7764,0.7909,0.8008,0.8088,0.8228,0.8336,0.855,0.862,0.8611,0.8945,0.9068,0.9292,0.9328,0.9402,0.9448,0.9413,0.9581,0.9595,0.9609,0.9665,0.9686,0.9448,0.9448,0.9448,0.9449,0,0.765,0.7794,0.7882,0.8082,0.8192,0.8333,0.8464,0.8564,0.8624,0.8722,0.8917,0.9067,0.9253,0.9312,0.9373,0.9547,0.954,0.9554,0.954,0.9622,0.9678,0.97,0.9447,0.9447,0.9447,0.9448,0,0,0.771,0.7967,0.7998,0.8092,0.8289,0.8406,0.8554,0.8732,0.8818,0.8964,0.9096,0.9318,0.9334,0.9444,0.9521,0.9617,0.973,0.9621,0.9628,0.964,0.9939,0.9929,0.9951,0.9762,0.9766,0.977,0.9926,0,0.7833,0.8094,0.8193,0.841,0.8549,0.863,0.876,0.8899,0.8996,0.9133,0.9243,0.94,0.9406,0.9474,0.9572,0.9695,0.9793,0.9685,0.9893,0.9899,0.9849,0.998,0.9969,1.0108,0.9948,0.9951,0.9954,0,0.8011,0.8155,0.8384,0.8568,0.863,0.8744,0.8919,0.9046,0.9208,0.9273,0.9397,0.9468,0.9635,0.9607,0.9842,0.9767,0.9859,0.9933,0.9941,0.9967,0.9933,1.0014,1.0154,1.0176,0.9988,0.9985,0.9983,0,0.8037,0.8289,0.846,0.8538,0.8756,0.8835,0.8931,0.909,0.9192,0.9347,0.9416,0.9589,0.9685,0.982,0.994,0.9908,1.0166,1.0147,1.0231,1.0228,1.0283,1.0279,1.0444,1.0336,1.0335,1.0335,1.0335,0,0.8165,0.8304,0.8475,0.858,0.874,0.8857,0.9014,0.9116,0.9257,0.939,0.9472,0.9595,0.9743,0.9889,0.9984,1.0167,1.0209,1.0272,1.0296,1.0266,1.0259,1.033,1.0325,1.0341,1.034,1.0338,1.0337,0,0.8222,0.8341,0.8534,0.8724,0.8775,0.8885,0.9052,0.9162,0.9263,0.943,0.9476,0.9638,0.9813,0.9944,1.0173,1.0238,1.0435,1.0458,1.0378,1.0391,1.0469,1.0461,1.0689,1.0728,1.0588,1.059,1.059,0,0.8297,0.8405,0.8607,0.8698,0.8792,0.894,0.9044,0.9165,0.9272,0.9467,0.9555,0.9735,0.9886,1.0164,1.0306,1.0483,1.0515,1.0582,1.0542,1.051,1.0522,1.0515,1.0529,1.0589,1.0589,1.059,1.0591,0,0.8421,0.8475,0.8619,0.8786,0.8907,0.9045,0.9186,0.9258,0.9406,0.9523,0.9701,0.9817,1.005,1.0231,1.0423,1.053,1.0588,1.0602,1.0632,1.0604,1.0555,1.0587,1.0397,1.0597,1.0596,1.0596,1.0595,1.0595,0.8493,0.8594,0.8752,0.8912,0.903,0.916,0.9273,0.9388,0.9537,0.9732,0.9796,0.9982,1.0149,1.0412,1.0521,1.0673,1.0674,1.0715,1.0726,1.0736,1.0736,1.0527,1.0708,1.0708,1.0708,1.0708,1.0708,0,0.8624,0.873,0.8875,0.9067,0.9195,0.9233,0.9392,0.9498,0.9658,0.9806,0.9952,1.0161,1.0337,1.0494,1.0679,1.0772,1.0804,1.0817,1.0813,1.0839,1.0722,1.068,1.0788,1.0788,1.0788,1.0788,1.0788,1.0788,0.8707,0.8882,0.8956,0.9194,0.9301,0.9479,0.9567,0.9691,0.981,1.0037,1.0182,1.0281,1.0436,1.0634,1.08,1.0843,1.091,1.0917,1.0966,1.0855,1.0846,1.0837,1.0798,1.0929,1.0929,1.1071,1.1072,1.1073]}]]